POLYITAN-1

Last updated on Sat Aug 30 2025 00:03:48 GMT+0000 (Coordinated Universal Time)

1 40042U 14033AJ 25240.97038742 .00020213 00000+0 92382-3 0 9998 2 40042 98.1082 237.1589 0011884 87.7395 272.5199 15.20542483608997
UTC large
Height (km)
Speed (km/s)
/
Latitude / Longitude
Inclination (degrees)
Orbital Period (minutes)
Azimuth
Elevation
Range (km)
Doppler Factor

Next 0 passes for location: London (51.5072 / 0.1276)

Sorry there are no passes over London.